Location: Unspecified
(0.0000°N, 0.0000°E)
Time: 03:19:29
(UTC+00:00)

Tiros 1 despin weight - All Passes

Search period start: 04 July 2015 00:00
Search period end: 14 July 2015 00:00
Orbit: 597 x 647 km, 48.2° (Epoch: 03 July)

Date Brightness Start Highest point End Pass type
(mag) Time Alt. Az. Time Alt. Az. Time Alt. Az.
04 Jul - 02:05:59 10° SSE 02:08:17 14° SE 02:10:50 10° E night (unlit)
04 Jul - 03:45:25 10° SW 03:49:57 46° NW 03:54:27 10° NNE visible
04 Jul - 14:14:04 10° N 14:17:22 21° NE 14:20:46 10° E daylight
04 Jul - 15:55:10 10° WNW 15:58:55 26° SW 16:02:37 10° S daylight
05 Jul - 02:22:01 10° SSW 02:26:19 36° SE 02:30:39 10° ENE visible
05 Jul - 04:04:43 10° W 04:07:56 18° NW 04:11:00 10° N visible
05 Jul - 14:30:56 10° NNW 14:35:19 60° NE 14:39:40 10° SE daylight
06 Jul - 02:39:31 10° SW 02:44:12 79° NW 02:48:54 10° NE visible
06 Jul - 13:09:41 10° NNE 13:11:33 13° NE 13:13:40 10° ENE daylight
06 Jul - 14:48:57 10° WNW 14:53:12 44° SW 14:57:25 10° SSE daylight
07 Jul - 01:16:56 10° S 01:20:32 22° SE 01:24:15 10° ENE night (unlit)
07 Jul - 02:58:04 10° WSW 03:02:08 28° NW 03:06:07 10° N visible
07 Jul - 13:25:33 10° NNW 13:29:36 35° NE 13:33:40 10° ESE daylight
07 Jul - 15:08:19 10° W 15:11:10 16° SW 15:13:50 10° SSW daylight
08 Jul - 01:33:51 10° SSW 01:38:28 61° SE 01:43:06 10° NE night (unlit)
08 Jul - 03:19:06 10° WNW 03:20:12 10° NW 03:21:00 10° NW visible
08 Jul - 13:43:01 10° NW 13:47:29 78° SW 13:51:55 10° SE daylight
09 Jul - 00:12:26 10° SSE 00:14:41 14° SE 00:17:12 10° E night (unlit)
09 Jul - 01:51:52 10° SW 01:56:21 46° NW 02:00:50 10° NNE night (unlit)
09 Jul - 12:20:29 10° N 12:23:50 21° NE 12:27:17 10° E daylight
09 Jul - 14:01:36 10° WNW 14:05:23 26° SW 14:09:05 10° S daylight
10 Jul - 00:28:27 10° SSW 00:32:42 36° SE 00:37:02 10° ENE night (unlit)
10 Jul - 02:11:10 10° W 02:14:20 17° NW 02:17:21 10° N night (unlit)
10 Jul - 12:37:21 10° NNW 12:41:47 61° NE 12:46:10 10° SE daylight
11 Jul - 00:45:57 10° SW 00:50:35 79° NW 00:55:16 10° NE night (unlit)
11 Jul - 11:16:01 10° NNE 11:18:00 13° NE 11:20:12 10° ENE daylight
11 Jul - 12:55:21 10° WNW 12:59:38 44° SW 13:03:53 10° SSE daylight
11 Jul - 23:23:22 10° S 23:26:54 22° SE 23:30:36 10° ENE night (unlit)
12 Jul - 01:04:30 10° WSW 01:08:31 28° NW 01:12:28 10° N night (unlit)
12 Jul - 11:31:55 10° NNW 11:36:02 35° NE 11:40:08 10° ESE daylight
12 Jul - 13:14:44 10° W 13:17:37 16° SW 13:20:17 10° SSW daylight
12 Jul - 23:40:17 10° SSW 23:44:50 62° SE 23:49:27 10° NE night (unlit)
13 Jul - 01:25:41 10° WNW 01:26:35 10° NW 01:27:10 10° NW night (unlit)
13 Jul - 11:49:25 10° NW 11:53:55 77° SW 11:58:22 10° SE daylight
13 Jul - 22:18:52 10° SSE 22:21:05 14° SE 22:23:32 10° E night (unlit)
